ECHOSTAR 21

Last updated on Oct. 23, 2020, 5:56 a.m. UTC

1 42749U 17032A   20296.80743779  .00000046  00000-0  00000-0 0  9993
2 42749   5.2462 312.1047 0002350 242.2872 138.2373  1.00272817 12426
UTC
Height (km)
Latitude
Longitude
Inclination
Orbital Period
UTC large
Height (km)
Speed (km/s)
/
Latitude / Longitude
Inclination (degrees)
Orbital Period (minutes)
Azimuth
Elevation
Range (km)
Doppler Factor
iOS Compass Heading
iOS Angle

Next 30 passes for location: Hong Kong

Rise time Rise Azimuth (degrees) Set time Set Azimuth (degrees) Duration Max altitude (degrees)

No matching passes for this satellites